Terug naar catalogus

COSMOS 83

ActiefMilitairLEO
NORAD 1573·PAYLOAD·🇷🇺 Russia

Gelanceerd Sep 3, 1965 vanaf Baikonur Cosmodrome

Loading…

Volgende Passages (komende 24 uur)

TLE

VersSource: Space-Track

Epoch: Sep 14, 2026, 13:36 UTC

1 01573U 65070D   26257.56711822 -.00000083  00000-0  74183-4 0  9997
2 01573  56.0523 106.4445 0066349 193.4890 166.4240 12.41046666766306

Volg COSMOS 83 in realtime met AllMySat

Download on the App Store